When you browse on this site, cookies collect data to enhance your experience and personalize the content and advertising you see.
Visit our Privacy Policy to learn more. By continuing to use the site, you agree to this use of cookies and data.
  • In Hungary
  • List of Countries
  • For 7 days
  • Water Temperature
  • Satellite Maps
  • Weather Map
  • News
  • Weather Widgets
  • user-avatar
    Login

    Hourly Weather Wysoka

    Today, 21 January, Monday

    Time Temperature Precipitation Wind Pressure Humidity
    00:00 -4°C° 0 mm 1 mps 741 mmHg 75%
    01:00 -4°C° 0 mm 1 mps 741 mmHg 77%
    02:00 -4°C° 0 mm 1 mps 741 mmHg 78%
    03:00 -4°C° 0 mm 1 mps 741 mmHg 79%
    04:00 -4°C° 0 mm 1 mps 741 mmHg 79%
    05:00 -6°C° 0 mm 1 mps 741 mmHg 79%
    06:00 -6°C° 0 mm 0 mps 741 mmHg 80%
    07:00 -6°C° 0 mm 1 mps 742 mmHg 82%
    08:00 -4°C° 0 mm 1 mps 742 mmHg 79%
    09:00 -4°C° 0 mm 1 mps 742 mmHg 75%
    10:00 -3°C° 0 mm 1 mps 742 mmHg 72%
    11:00 -2°C° 0 mm 1 mps 742 mmHg 69%
    12:00 -2°C° 0 mm 1 mps 742 mmHg 65%
    13:00 -1°C° 0 mm 1 mps 741 mmHg 62%
    14:00 -1°C° 0 mm 1 mps 741 mmHg 65%
    15:00 -2°C° 0 mm 1 mps 741 mmHg 68%
    16:00 -2°C° 0 mm 1 mps 740 mmHg 71%
    17:00 -2°C° 0 mm 1 mps 740 mmHg 72%
    18:00 -3°C° 0 mm 1 mps 740 mmHg 74%
    19:00 -3°C° 0 mm 1 mps 740 mmHg 75%
    20:00 -3°C° 0 mm 1 mps 740 mmHg 76%
    21:00 -5°C° 0 mm 2 mps 740 mmHg 77%
    22:00 -5°C° 0 mm 2 mps 740 mmHg 78%
    23:00 -6°C° 0 mm 2 mps 739 mmHg 79%

    Tomorrow, 22 January, Tuesday

    Time Temperature Precipitation Wind Pressure Humidity
    00:00 -6°C° 0 mm 2 mps 739 mmHg 79%
    01:00 -6°C° 0 mm 2 mps 739 mmHg 79%
    02:00 -6°C° 0 mm 2 mps 738 mmHg 79%
    03:00 -6°C° 0 mm 2 mps 738 mmHg 78%
    04:00 -6°C° 0 mm 2 mps 737 mmHg 78%
    05:00 -6°C° 0 mm 2 mps 737 mmHg 77%
    06:00 -6°C° 0 mm 2 mps 737 mmHg 77%
    07:00 -6°C° 0 mm 2 mps 737 mmHg 76%
    08:00 -5°C° 0 mm 2 mps 737 mmHg 73%
    09:00 -5°C° 0 mm 2 mps 736 mmHg 70%
    10:00 -4°C° 0 mm 2 mps 736 mmHg 66%
    11:00 -4°C° 0 mm 2 mps 736 mmHg 63%
    12:00 -1°C° 0 mm 1 mps 735 mmHg 59%
    13:00 0°C° 0 mm 1 mps 735 mmHg 55%
    14:00 -1°C° 0 mm 1 mps 734 mmHg 58%
    15:00 -1°C° 0 mm 1 mps 734 mmHg 61%
    16:00 -2°C° 0 mm 1 mps 733 mmHg 65%
    17:00 -2°C° 0 mm 1 mps 733 mmHg 67%
    18:00 -4°C° 0 mm 2 mps 733 mmHg 70%
    19:00 -5°C° 0 mm 2 mps 733 mmHg 73%
    20:00 -5°C° 0 mm 2 mps 733 mmHg 74%
    21:00 -5°C° 0 mm 2 mps 732 mmHg 75%
    22:00 -5°C° 0 mm 2 mps 732 mmHg 76%
    23:00 -6°C° 0 mm 2 mps 732 mmHg 76%

    Day after tomorrow, 23 January, Wednesday

    Time Temperature Precipitation Wind Pressure Humidity
    00:00 -6°C° 0 mm 2 mps 731 mmHg 76%
    01:00 -6°C° 0 mm 2 mps 731 mmHg 76%
    02:00 -6°C° 0 mm 2 mps 731 mmHg 78%
    03:00 -8°C° 0 mm 3 mps 730 mmHg 80%
    04:00 -8°C° 0 mm 3 mps 730 mmHg 82%
    05:00 -8°C° 0 mm 3 mps 730 mmHg 84%
    06:00 -8°C° 0 mm 3 mps 730 mmHg 86%
    07:00 -8°C° 0 mm 3 mps 730 mmHg 88%
    08:00 -9°C° 0 mm 4 mps 730 mmHg 86%
    09:00 -8°C° 0 mm 4 mps 730 mmHg 83%
    10:00 -8°C° 0 mm 4 mps 730 mmHg 80%
    11:00 -7°C° 0 mm 4 mps 730 mmHg 77%
    12:00 -7°C° 0 mm 4 mps 729 mmHg 74%
    13:00 -5°C° 0 mm 4 mps 729 mmHg 72%
    14:00 -5°C° 0 mm 4 mps 729 mmHg 73%
    15:00 -7°C° 0 mm 4 mps 730 mmHg 75%
    16:00 -7°C° 0 mm 4 mps 730 mmHg 76%
    17:00 -7°C° 0 mm 4 mps 730 mmHg 78%
    18:00 -7°C° 0 mm 4 mps 731 mmHg 79%
    19:00 -8°C° 0 mm 4 mps 731 mmHg 81%
    20:00 -8°C° 0 mm 4 mps 731 mmHg 81%
    21:00 -7°C° 0 mm 3 mps 732 mmHg 82%
    22:00 -7°C° 0 mm 3 mps 732 mmHg 82%
    23:00 -7°C° 0 mm 3 mps 732 mmHg 81%

    24 January, Thursday

    Time Temperature Precipitation Wind Pressure Humidity
    00:00 -8°C° 0 mm 3 mps 733 mmHg 80%
    01:00 -8°C° 0 mm 3 mps 733 mmHg 80%
    02:00 -8°C° 0 mm 3 mps 733 mmHg 81%
    03:00 -8°C° 0 mm 3 mps 733 mmHg 82%
    04:00 -8°C° 0 mm 3 mps 733 mmHg 83%
    05:00 -8°C° 0 mm 3 mps 733 mmHg 83%
    06:00 -8°C° 0 mm 3 mps 734 mmHg 84%
    07:00 -8°C° 0 mm 3 mps 734 mmHg 84%
    08:00 -8°C° 0 mm 3 mps 734 mmHg 82%
    09:00 -8°C° 0 mm 3 mps 735 mmHg 79%
    10:00 -7°C° 0 mm 3 mps 735 mmHg 77%
    11:00 -7°C° 0 mm 3 mps 735 mmHg 75%
    12:00 -6°C° 0 mm 3 mps 735 mmHg 73%
    13:00 -5°C° 0 mm 3 mps 735 mmHg 71%
    14:00 -6°C° 0 mm 3 mps 735 mmHg 73%
    15:00 -6°C° 0 mm 3 mps 735 mmHg 75%
    16:00 -6°C° 0 mm 3 mps 735 mmHg 77%
    17:00 -6°C° 0 mm 3 mps 735 mmHg 79%
    18:00 -7°C° 0 mm 3 mps 735 mmHg 80%
    19:00 -7°C° 0 mm 3 mps 736 mmHg 82%
    20:00 -6°C° 0 mm 2 mps 736 mmHg 82%
    21:00 -6°C° 0 mm 2 mps 736 mmHg 82%
    22:00 -6°C° 0 mm 2 mps 736 mmHg 81%
    23:00 -6°C° 0 mm 2 mps 736 mmHg 81%

    25 January, Friday

    Time Temperature Precipitation Wind Pressure Humidity
    00:00 -6°C° 0 mm 2 mps 736 mmHg 80%
    01:00 -4°C° 0 mm 1 mps 736 mmHg 79%
    02:00 -4°C° 0 mm 1 mps 736 mmHg 78%
    03:00 -4°C° 0 mm 1 mps 736 mmHg 77%
    04:00 -4°C° 0 mm 1 mps 736 mmHg 77%
    05:00 -4°C° 0 mm 1 mps 736 mmHg 76%
    06:00 -4°C° 0 mm 1 mps 736 mmHg 75%
    07:00 -5°C° 0 mm 0 mps 736 mmHg 74%
    08:00 -5°C° 0 mm 0 mps 736 mmHg 73%
    09:00 -4°C° 0 mm 1 mps 737 mmHg 72%
    10:00 -3°C° 0 mm 1 mps 737 mmHg 70%
    11:00 -3°C° 0 mm 1 mps 737 mmHg 70%
    12:00 -3°C° 0 mm 1 mps 737 mmHg 69%
    13:00 -3°C° 0 mm 1 mps 736 mmHg 68%
    14:00 -3°C° 0 mm 1 mps 736 mmHg 69%
    15:00 -3°C° 0 mm 1 mps 736 mmHg 70%
    16:00 -3°C° 0 mm 1 mps 737 mmHg 71%
    17:00 -3°C° 0 mm 1 mps 737 mmHg 72%
    18:00 -3°C° 0 mm 1 mps 737 mmHg 73%
    19:00 -3°C° 0 mm 1 mps 737 mmHg 74%
    20:00 -3°C° 0 mm 1 mps 737 mmHg 75%
    21:00 -3°C° 0 mm 1 mps 737 mmHg 76%
    22:00 -3°C° 0 mm 1 mps 737 mmHg 76%
    23:00 -4°C° 0 mm 1 mps 737 mmHg 79%

    26 January, Saturday

    Time Temperature Precipitation Wind Pressure Humidity
    00:00 -5°C° 0 mm 0 mps 737 mmHg 81%
    01:00 -5°C° 0 mm 0 mps 737 mmHg 83%
    02:00 -6°C° 0 mm 0 mps 737 mmHg 84%
    03:00 -6°C° 0 mm 0 mps 736 mmHg 85%
    04:00 -6°C° 0 mm 1 mps 736 mmHg 86%
    05:00 -6°C° 0 mm 1 mps 736 mmHg 86%
    06:00 -6°C° 0 mm 1 mps 736 mmHg 87%
    07:00 -7°C° 0 mm 2 mps 736 mmHg 87%
    08:00 -7°C° 0 mm 2 mps 735 mmHg 84%
    09:00 -7°C° 0 mm 3 mps 735 mmHg 80%
    10:00 -7°C° 0 mm 4 mps 735 mmHg 77%
    11:00 -7°C° 0 mm 4 mps 734 mmHg 72%
    12:00 -5°C° 0 mm 4 mps 734 mmHg 67%
    13:00 -4°C° 0 mm 4 mps 733 mmHg 62%
    14:00 -4°C° 0 mm 4 mps 732 mmHg 61%
    15:00 -4°C° 0 mm 4 mps 732 mmHg 61%
    16:00 -4°C° 0 mm 4 mps 732 mmHg 61%
    17:00 -4°C° 0 mm 4 mps 731 mmHg 65%
    18:00 -4°C° 0 mm 4 mps 731 mmHg 69%
    19:00 -4°C° 0 mm 4 mps 731 mmHg 73%
    20:00 -4°C° 0 mm 4 mps 730 mmHg 76%
    21:00 -4°C° 0 mm 4 mps 730 mmHg 79%
    22:00 -5°C° 0 mm 5 mps 730 mmHg 82%
    23:00 -4°C° 0 mm 5 mps 729 mmHg 82%
    Show more